Location: Newark
(48.0000°N, 67.0000°E)
Time: 18:58:15
(UTC+00:00)

BEESAT 3 - Visible Passes

Search period start: 10 April 2020 00:00
Search period end: 20 April 2020 00:00
Orbit: 478 x 528 km, 64.9° (Epoch: 10 April)

Date Brightness Start Highest point End Pass type
(mag) Time Alt. Az. Time Alt. Az. Time Alt. Az.
10 Apr ? 19:07:38 17° NNW 19:07:38 17° NNW 19:09:33 10° NNE visible
11 Apr ? 00:00:35 10° NNW 00:03:54 25° NE 00:07:12 10° E visible
11 Apr ? 17:12:31 14° NE 17:12:31 14° NE 17:13:05 10° NE visible
11 Apr ? 18:47:07 18° NNW 18:47:07 18° NNW 18:49:50 10° NNE visible
11 Apr ? 23:40:50 10° NNW 23:44:07 24° NE 23:47:20 10° E visible
12 Apr ? 16:51:12 30° NE 16:51:12 30° NE 16:53:18 10° NE visible
12 Apr ? 18:25:42 16° WNW 18:27:10 19° NW 18:30:06 10° NNE visible
12 Apr ? 23:21:06 10° NNW 23:24:19 23° NE 23:27:29 10° E visible
13 Apr ? 16:25:36 10° SSW 16:29:32 73° SE 16:33:32 10° NE visible
13 Apr ? 18:04:22 10° W 18:07:21 20° NW 18:10:21 10° NNE visible
13 Apr ? 23:01:21 10° NNW 23:04:30 22° NE 23:07:37 10° E visible
14 Apr ? 16:05:50 10° SSW 16:09:46 69° SE 16:13:44 10° NE visible
14 Apr ? 17:44:29 10° W 17:47:33 21° NW 17:50:37 10° NNE visible
14 Apr ? 22:41:36 10° NNW 22:44:41 21° NE 22:47:44 10° E visible
15 Apr ? 15:46:05 10° SSW 15:49:59 64° ESE 15:53:57 10° NE visible
15 Apr ? 17:24:37 10° W 17:27:44 21° NW 17:30:52 10° NNE visible
15 Apr ? 22:21:52 10° NNW 22:24:52 20° NE 22:27:51 10° E visible
15 Apr ? 23:58:43 10° NW 00:02:40 70° SW 00:06:32 10° SSE visible
16 Apr ? 15:26:19 10° SSW 15:30:13 60° ESE 15:34:09 10° NE visible
16 Apr ? 17:04:44 10° W 17:07:55 22° NW 17:11:07 10° NNE visible
16 Apr ? 22:02:07 10° NNW 22:05:03 19° NE 22:07:57 10° E visible
16 Apr ? 23:38:56 10° NW 23:42:54 75° SW 23:46:46 10° SSE visible
17 Apr ? 15:06:34 10° SSW 15:10:26 55° ESE 15:14:21 10° NE visible
17 Apr ? 16:44:51 10° W 16:48:06 23° NW 16:51:22 10° NNE visible
17 Apr ? 21:42:22 10° NNW 21:45:14 19° NNE 21:48:04 10° E visible
17 Apr ? 23:19:08 10° NW 23:23:07 80° SW 23:27:00 10° SSE visible
18 Apr ? 16:24:59 10° W 16:28:17 24° NW 16:31:36 10° NNE visible
18 Apr ? 21:22:37 10° NNW 21:25:24 18° NNE 21:28:09 10° ENE visible
18 Apr ? 22:59:21 10° NW 23:03:19 85° SW 23:07:13 10° SE visible
19 Apr ? 16:05:07 10° W 16:08:28 25° NW 16:11:51 10° NNE visible
19 Apr ? 21:02:53 10° N 21:05:34 17° NNE 21:08:15 10° ENE visible
19 Apr ? 22:39:34 10° NW 22:43:32 89° NNE 22:47:25 10° SE visible
